Location: *
(53.9002°N, 27.5624°E)
Time: 22:19:36
(UTC+00:00)

CSL-04 Debris - Pass Details

Date: 12 November 2019
Orbit: 826 x 849 km, 99.0° (Epoch: 09 December)

Event Time Altitude Azimuth Distance (km) Brightness Sun altitude
Rises 15:34:58 0° 140° (SE) 3,406 7.1 -11.5°
Reaches altitude 10° 15:37:24 10° 134° (SE) 2,474 6.3 -11.9°
Maximum altitude 15:42:36 46° 63° (ENE) 1,139 4.5 -12.6°
Drops below altitude 10° 15:47:49 10° 352° (N) 2,485 6.6 -13.4°
Sets 15:50:16 0° 347° (NNW) 3,422 7.4 -13.7°
